Back to catalog

STARLINK-3577

AliveCommunicationsVLEO
NORAD 51884·PAYLOAD·🇺🇸 United States

Launched Mar 3, 2022 from Cape Canaveral Space Force Station

Loading…

Next Passes (next 24 hours)

TLE

FreshSource: CelesTrak SupGP

Epoch: Sep 14, 2026, 13:05 UTC

1 51884C 22022AJ  26257.54562500 -.00034042  00000+0 -10060-2 0  2573
2 51884  53.1581 217.8985 0001332  86.8897 270.7713 15.34400818    18

Track STARLINK-3577 in real time with AllMySat

Download on the App Store